Rolla, ND

9:11 PM CST on January 22, 2018 (GMT -0600)
Rolla

Weather History for K06D - November, 2012

Change the Weather History Date:

Friday, November 16, 2012

  Actual Average (KRUG) Record (KRUG)
Temperature  
Mean Temperature 22 °F -  
Max Temperature 32 °F 35 °F 60 °F (1953)
Min Temperature 12 °F 18 °F -12 °F (1959)
Degree Days  
Heating Degree Days 43    
Moisture  
Dew Point 20 °F    
Average Humidity 96    
Maximum Humidity 100    
Minimum Humidity 74    
Precipitation  
Precipitation 0.00 in - - ()
Sea Level Pressure  
Sea Level Pressure 30.09 in    
Wind  
Wind Speed 9 mph (SSW)    
Max Wind Speed 18 mph    
Max Gust Speed 16 mph    
Visibility 9 miles    
Events      
Averages and records for this station are not official NWS values.
T = Trace of Precipitation, MM = Missing Value Source: NWS Daily Summary

Daily Weather History Graph

Daily Weather History Graph

Search for Another Location

Airport or City:

Trip Planner

Search our weather history database for the weather conditions in past years. The results will help you decide how hot, cold, wet, or windy it might be!

Date:

Astronomy

Nov. 16, 2012 Rise Set
Actual Time 7:50 AM CST 4:56 PM CST
Civil Twilight 7:15 AM CST 5:30 PM CST
Nautical Twilight 6:36 AM CST 6:09 PM CST
Astronomical Twilight 5:59 AM CST 6:46 PM CST
Moon 10:50 AM CST (11/16) 7:54 PM CST (11/16)
Length of Visible Light 10h 15m
Length of Day
9h 06m
Waxing Crescent, 12% of the Moon is Illuminated
Nov 16
Waxing Crescent
Nov 20
First Quarter
Nov 28
Full
Dec 6
Last Quarter
Dec 13
New

Hourly Weather History & Observations

Time (CST) Temp. Windchill Dew Point Humidity Pressure Visibility Wind Dir Wind Speed Gust Speed Precip Events Conditions
12:15 AM 15.8 °F 6.1 °F 15.8 °F 100% 30.30 in 10.0 mi SSW 6.9 mph - N/A   Clear
12:35 AM 15.8 °F 7.2 °F 15.8 °F 100% 30.30 in 10.0 mi SSW 5.8 mph - N/A   Clear
12:55 AM 15.8 °F 5.1 °F 15.8 °F 100% 30.29 in 10.0 mi South 8.1 mph - N/A   Clear
1:15 AM 15.8 °F 5.1 °F 15.8 °F 100% 30.28 in 10.0 mi SSW 8.1 mph - N/A   Clear
1:35 AM 15.8 °F 5.1 °F 15.8 °F 100% 30.27 in 10.0 mi SSW 8.1 mph - N/A   Clear
1:55 AM 15.8 °F 5.1 °F 15.8 °F 100% 30.26 in 10.0 mi SSW 8.1 mph - N/A   Clear
2:15 AM 15.8 °F 5.1 °F 15.8 °F 100% 30.25 in 10.0 mi SSW 8.1 mph - N/A   Clear
2:35 AM 15.8 °F 4.2 °F 15.8 °F 100% 30.24 in 10.0 mi South 9.2 mph - N/A   Clear
2:55 AM 15.8 °F 4.2 °F 15.8 °F 100% 30.24 in 10.0 mi SSW 9.2 mph - N/A   Clear
3:15 AM 15.8 °F 4.2 °F 15.8 °F 100% 30.23 in 10.0 mi SSW 9.2 mph - N/A   Clear
3:35 AM 15.8 °F 4.2 °F 15.8 °F 100% 30.22 in 10.0 mi SSW 9.2 mph - N/A   Clear
3:55 AM 15.8 °F 5.1 °F 15.8 °F 100% 30.21 in 10.0 mi SSW 8.1 mph - N/A   Clear
4:15 AM 15.8 °F 4.2 °F 15.8 °F 100% 30.21 in 10.0 mi SSW 9.2 mph - N/A   Clear
4:35 AM 15.8 °F 5.1 °F 15.8 °F 100% 30.20 in 10.0 mi SSW 8.1 mph - N/A   Clear
4:55 AM 15.8 °F 6.1 °F 15.8 °F 100% 30.19 in 10.0 mi SSW 6.9 mph - N/A   Clear
5:15 AM 14.0 °F 3.9 °F 14.0 °F 100% 30.18 in 10.0 mi South 6.9 mph - N/A   Clear
5:35 AM 14.0 °F 2.0 °F 14.0 °F 100% 30.17 in 10.0 mi South 9.2 mph - N/A   Clear
5:55 AM 14.0 °F 2.9 °F 14.0 °F 100% 30.16 in 10.0 mi South 8.1 mph - N/A   Clear
6:15 AM 14.0 °F 2.0 °F 14.0 °F 100% 30.16 in 10.0 mi South 9.2 mph - N/A   Clear
6:35 AM 12.2 °F 1.7 °F 12.2 °F 100% 30.16 in 10.0 mi South 6.9 mph - N/A   Clear
6:55 AM 14.0 °F 2.9 °F 14.0 °F 100% 30.15 in 10.0 mi South 8.1 mph - N/A   Scattered Clouds
7:15 AM 14.0 °F 2.9 °F 14.0 °F 100% 30.15 in 10.0 mi SSW 8.1 mph - N/A   Partly Cloudy
7:35 AM 15.8 °F 5.1 °F 15.8 °F 100% 30.14 in 10.0 mi South 8.1 mph - N/A   Scattered Clouds
7:55 AM 15.8 °F 5.1 °F 15.8 °F 100% 30.14 in 10.0 mi South 8.1 mph - N/A   Partly Cloudy
8:15 AM 14.0 °F 5.1 °F 14.0 °F 100% 30.14 in 10.0 mi South 5.8 mph - N/A   Clear
8:35 AM 14.0 °F 3.9 °F 14.0 °F 100% 30.14 in 10.0 mi SSE 6.9 mph - N/A   Clear
8:55 AM 14.0 °F 5.1 °F 14.0 °F 100% 30.14 in 10.0 mi SSE 5.8 mph - N/A   Clear
9:15 AM 15.8 °F 3.4 °F 14.0 °F 93% 30.13 in 10.0 mi South 10.4 mph - N/A   Clear
9:35 AM 17.6 °F 6.4 °F 15.8 °F 93% 30.13 in 10.0 mi South 9.2 mph - N/A   Clear
9:55 AM 19.4 °F 7.2 °F 15.8 °F 86% 30.12 in 10.0 mi South 11.5 mph - N/A   Clear
10:15 AM 21.2 °F 9.5 °F 15.8 °F 80% 30.11 in 10.0 mi South 11.5 mph - N/A   Clear
10:35 AM 21.2 °F 8.9 °F 17.6 °F 86% 30.10 in 10.0 mi South 12.7 mph - N/A   Clear
10:55 AM 23.0 °F 11.1 °F 17.6 °F 80% 30.09 in 10.0 mi South 12.7 mph - N/A   Clear
11:15 AM 23.0 °F 13.1 °F 17.6 °F 80% 30.08 in 10.0 mi South 9.2 mph - N/A   Clear
11:35 AM 24.8 °F 14.0 °F 17.6 °F 74% 30.07 in 10.0 mi South 11.5 mph 16.1 mph N/A   Clear
11:55 AM 24.8 °F 13.4 °F 19.4 °F 80% 30.05 in 10.0 mi South 12.7 mph - N/A   Clear
12:15 PM 26.6 °F 15.2 °F 21.2 °F 80% 30.04 in 10.0 mi South 13.8 mph - N/A   Clear
12:35 PM 26.6 °F 14.7 °F 23.0 °F 86% 30.02 in 10.0 mi South 15.0 mph - N/A   Clear
12:55 PM 28.4 °F 15.8 °F 23.0 °F 80% 30.03 in 10.0 mi SSW 18.4 mph - N/A   Clear
1:15 PM 28.4 °F 16.2 °F 24.8 °F 86% 30.02 in 10.0 mi SSW 17.3 mph - N/A   Clear
1:35 PM 28.4 °F 16.2 °F 24.8 °F 86% 30.01 in 10.0 mi SSW 17.3 mph - N/A   Clear
1:55 PM 28.4 °F 16.2 °F 26.6 °F 93% 30.00 in 10.0 mi SSW 17.3 mph - N/A   Clear
2:15 PM 28.4 °F 16.2 °F 26.6 °F 93% 29.99 in 10.0 mi SSW 17.3 mph - N/A   Clear
2:35 PM 28.4 °F 15.8 °F 26.6 °F 93% 29.98 in 10.0 mi SSW 18.4 mph - N/A   Clear
2:55 PM 28.4 °F 16.6 °F 28.4 °F 100% 29.98 in 10.0 mi SSW 16.1 mph - N/A   Clear
3:15 PM 30.2 °F 18.5 °F 28.4 °F 93% 29.99 in 10.0 mi SSW 17.3 mph - N/A   Clear
3:35 PM 30.2 °F 19.3 °F 30.2 °F 100% 29.99 in 10.0 mi SSW 15.0 mph - N/A   Clear
3:55 PM 32.0 °F 20.8 °F 30.2 °F 93% 29.98 in 10.0 mi SSW 17.3 mph - N/A   Clear
4:15 PM 32.0 °F 22.5 °F 30.2 °F 93% 29.98 in 10.0 mi SSW 12.7 mph - N/A   Clear
4:35 PM 32.0 °F 23.0 °F 30.2 °F 93% 29.99 in 10.0 mi SSW 11.5 mph - N/A   Clear
4:55 PM 28.4 °F 18.5 °F 28.4 °F 100% 29.99 in 10.0 mi South 11.5 mph - N/A   Clear
5:15 PM 26.6 °F 16.8 °F 26.6 °F 100% 29.99 in 10.0 mi South 10.4 mph - N/A   Clear
5:35 PM 26.6 °F 18.2 °F 26.6 °F 100% 30.00 in 10.0 mi South 8.1 mph - N/A   Clear
5:55 PM 24.8 °F 15.3 °F 24.8 °F 100% 30.00 in 10.0 mi South 9.2 mph - N/A   Clear
6:15 PM 24.8 °F 16.1 °F 24.8 °F 100% 30.00 in 10.0 mi South 8.1 mph - N/A   Clear
6:35 PM 24.8 °F 15.3 °F 24.8 °F 100% 29.99 in 10.0 mi South 9.2 mph - N/A   Clear
6:55 PM 24.8 °F 15.3 °F 24.8 °F 100% 29.99 in 9.0 mi SSW 9.2 mph - N/A   Clear
7:15 PM 23.0 °F 13.1 °F 23.0 °F 100% 29.98 in 10.0 mi SSW 9.2 mph - N/A   Clear
7:55 PM 23.0 °F 12.4 °F 23.0 °F 100% 29.98 in 10.0 mi SSW 10.4 mph - N/A   Clear
8:15 PM 23.0 °F 11.1 °F 23.0 °F 100% 29.98 in 10.0 mi SSW 12.7 mph - N/A   Clear
8:35 PM 23.0 °F 11.7 °F 23.0 °F 100% 29.98 in 6.0 mi SSW 11.5 mph - N/A   Clear
8:55 PM 23.0 °F 10.6 °F 23.0 °F 100% 29.98 in 7.0 mi SSW 13.8 mph - N/A   Clear
9:15 PM 23.0 °F 13.9 °F 23.0 °F 100% 29.98 in 10.0 mi SSW 8.1 mph - N/A   Clear
9:55 PM 23.0 °F 14.7 °F 23.0 °F 100% 29.98 in 6.0 mi South 6.9 mph - N/A   Clear
10:15 PM 23.0 °F 13.1 °F 23.0 °F 100% 29.98 in 3.0 mi SSW 9.2 mph - N/A   Scattered Clouds
10:35 PM 21.2 °F 13.6 °F 21.2 °F 100% 29.98 in 7.0 mi SSW 5.8 mph - N/A   Partly Cloudy
10:55 PM 23.0 °F 18.4 °F 23.0 °F 100% 29.99 in 7.0 mi SW 3.5 mph - N/A   Clear
11:15 PM 24.8 °F 17.9 °F 24.8 °F 100% 29.98 in 5.0 mi SW 5.8 mph - N/A   Clear
11:35 PM 23.0 °F 18.4 °F 23.0 °F 100% 29.98 in 3.0 mi South 3.5 mph - N/A   Clear
11:55 PM 23.0 °F - 23.0 °F 100% 29.99 in 1.5 mi Calm Calm - N/A   Clear